Year,Month,Day,Hour,Minute,Value (Times are PST for windgust in km/hr)
2019,06,21,00,00,14.50
2019,06,21,00,01,11.30
2019,06,21,00,02,17.70
2019,06,21,00,03,9.60
2019,06,21,00,04,9.60
2019,06,21,00,05,22.50
2019,06,21,00,06,8.10
2019,06,21,00,07,12.90
2019,06,21,00,08,19.30
2019,06,21,00,09,16.10
2019,06,21,00,10,16.10
2019,06,21,00,11,14.50
2019,06,21,00,12,14.50
2019,06,21,00,13,14.50
2019,06,21,00,14,17.70
2019,06,21,00,15,20.90
2019,06,21,00,16,14.50
2019,06,21,00,17,14.50
2019,06,21,00,18,12.90
2019,06,21,00,19,17.70
2019,06,21,00,20,12.90
2019,06,21,00,21,17.70
2019,06,21,00,22,17.70
2019,06,21,00,23,22.50
2019,06,21,00,24,11.30
2019,06,21,00,25,11.30
2019,06,21,00,26,6.40
2019,06,21,00,27,22.50
2019,06,21,00,28,22.50
2019,06,21,00,29,17.70
2019,06,21,00,30,24.20
2019,06,21,00,31,9.60
2019,06,21,00,32,14.50
2019,06,21,00,33,14.50
2019,06,21,00,34,16.10
2019,06,21,00,35,9.60
2019,06,21,00,36,20.90
2019,06,21,00,37,14.50
2019,06,21,00,38,4.80
2019,06,21,00,39,9.60
2019,06,21,00,40,17.70
2019,06,21,00,41,20.90
2019,06,21,00,42,16.10
2019,06,21,00,43,14.50
2019,06,21,00,44,12.90
2019,06,21,00,45,9.60
2019,06,21,00,46,14.50
2019,06,21,00,47,22.50
2019,06,21,00,48,16.10
2019,06,21,00,49,11.30
2019,06,21,00,50,11.30
2019,06,21,00,51,11.30
2019,06,21,00,52,8.10
2019,06,21,00,53,11.30
2019,06,21,00,54,16.10
2019,06,21,00,55,17.70
2019,06,21,00,56,9.60
2019,06,21,00,57,9.60
2019,06,21,00,58,6.40
2019,06,21,00,59,6.40
2019,06,21,01,00,14.50
2019,06,21,01,01,9.60
2019,06,21,01,02,11.30
2019,06,21,01,03,8.10
2019,06,21,01,04,6.40
2019,06,21,01,05,14.50
2019,06,21,01,06,14.50
2019,06,21,01,07,14.50
2019,06,21,01,08,14.50
2019,06,21,01,09,19.30
2019,06,21,01,10,20.90
2019,06,21,01,11,14.50
2019,06,21,01,12,9.60
2019,06,21,01,13,9.60
2019,06,21,01,14,16.10
2019,06,21,01,15,12.90
2019,06,21,01,16,17.70
2019,06,21,01,17,22.50
2019,06,21,01,18,20.90
2019,06,21,01,19,14.50
2019,06,21,01,20,16.10
2019,06,21,01,21,9.60
2019,06,21,01,22,16.10
2019,06,21,01,23,22.50
2019,06,21,01,24,12.90
2019,06,21,01,25,16.10
2019,06,21,01,26,16.10
2019,06,21,01,27,14.50
2019,06,21,01,28,17.70
2019,06,21,01,29,19.30
2019,06,21,01,30,6.40
2019,06,21,01,31,11.30
2019,06,21,01,32,6.40
2019,06,21,01,33,11.30
2019,06,21,01,34,14.50
2019,06,21,01,35,20.90
2019,06,21,01,36,20.90
2019,06,21,01,37,22.50
2019,06,21,01,38,14.50
2019,06,21,01,39,16.10
2019,06,21,01,40,6.40
2019,06,21,01,41,9.60
2019,06,21,01,42,12.90
2019,06,21,01,43,12.90
2019,06,21,01,44,17.70
2019,06,21,01,45,14.50
2019,06,21,01,46,8.10
2019,06,21,01,47,16.10
2019,06,21,01,48,14.50
2019,06,21,01,49,9.60
2019,06,21,01,50,6.40
2019,06,21,01,51,12.90
2019,06,21,01,52,14.50
2019,06,21,01,53,6.40
2019,06,21,01,54,14.50
2019,06,21,01,55,9.60
2019,06,21,01,56,16.10
2019,06,21,01,57,16.10
2019,06,21,01,58,9.60
2019,06,21,01,59,14.50
2019,06,21,02,00,8.10
2019,06,21,02,01,17.70
2019,06,21,02,02,14.50
2019,06,21,02,03,9.60
2019,06,21,02,04,8.10
2019,06,21,02,05,12.90
2019,06,21,02,06,19.30
2019,06,21,02,07,20.90
2019,06,21,02,08,14.50
2019,06,21,02,09,12.90
2019,06,21,02,10,12.90
2019,06,21,02,11,9.60
2019,06,21,02,12,12.90
2019,06,21,02,13,8.10
2019,06,21,02,14,12.90
2019,06,21,02,15,12.90
2019,06,21,02,16,14.50
2019,06,21,02,17,12.90
2019,06,21,02,18,8.10
2019,06,21,02,19,6.40
2019,06,21,02,20,12.90
2019,06,21,02,21,11.30
2019,06,21,02,22,14.50
2019,06,21,02,23,9.60
2019,06,21,02,24,11.30
2019,06,21,02,25,1.60
2019,06,21,02,26,9.60
2019,06,21,02,27,6.40
2019,06,21,02,28,8.10
2019,06,21,02,29,6.40
2019,06,21,02,30,6.40
2019,06,21,02,31,9.60
2019,06,21,02,32,11.30
2019,06,21,02,33,11.30
2019,06,21,02,34,9.60
2019,06,21,02,35,4.80
2019,06,21,02,36,11.30
2019,06,21,02,37,6.40
2019,06,21,02,38,3.20
2019,06,21,02,39,14.50
2019,06,21,02,40,8.10
2019,06,21,02,41,11.30
2019,06,21,02,42,11.30
2019,06,21,02,43,9.60
2019,06,21,02,44,6.40
2019,06,21,02,45,6.40
2019,06,21,02,46,4.80
2019,06,21,02,47,4.80
2019,06,21,02,48,6.40
2019,06,21,02,49,4.80
2019,06,21,02,50,4.80
2019,06,21,02,51,9.60
2019,06,21,02,52,6.40
2019,06,21,02,53,4.80
2019,06,21,02,54,6.40
2019,06,21,02,55,11.30
2019,06,21,02,56,9.60
2019,06,21,02,57,9.60
2019,06,21,02,58,12.90
2019,06,21,02,59,9.60
2019,06,21,03,00,11.30
2019,06,21,03,01,6.40
2019,06,21,03,02,4.80
2019,06,21,03,03,11.30
2019,06,21,03,04,6.40
2019,06,21,03,05,4.80
2019,06,21,03,06,6.40
2019,06,21,03,07,6.40
2019,06,21,03,08,11.30
2019,06,21,03,09,8.10
2019,06,21,03,10,3.20
2019,06,21,03,11,4.80
2019,06,21,03,12,4.80
2019,06,21,03,13,1.60
2019,06,21,03,14,3.20
2019,06,21,03,15,3.20
2019,06,21,03,16,9.60
2019,06,21,03,17,6.40
2019,06,21,03,18,4.80
2019,06,21,03,19,1.60
2019,06,21,03,20,6.40
2019,06,21,03,21,6.40
2019,06,21,03,22,6.40
2019,06,21,03,23,3.20
2019,06,21,03,24,3.20
2019,06,21,03,25,3.20
2019,06,21,03,26,3.20
2019,06,21,03,27,3.20
2019,06,21,03,28,4.80
2019,06,21,03,29,3.20
2019,06,21,03,30,3.20
2019,06,21,03,31,3.20
2019,06,21,03,32,4.80
2019,06,21,03,33,4.80
2019,06,21,03,34,3.20
2019,06,21,03,35,1.60
2019,06,21,03,37,1.60
2019,06,21,03,43,3.20
2019,06,21,03,44,4.80
2019,06,21,03,45,4.80
2019,06,21,03,46,6.40
2019,06,21,03,47,8.10
2019,06,21,03,48,4.80
2019,06,21,03,49,4.80
2019,06,21,03,50,3.20
2019,06,21,03,51,1.60
2019,06,21,03,52,1.60
2019,06,21,03,53,3.20
2019,06,21,03,54,3.20
2019,06,21,03,55,3.20
2019,06,21,03,56,3.20
2019,06,21,03,57,4.80
2019,06,21,03,58,8.10
2019,06,21,03,59,6.40
2019,06,21,04,00,4.80
2019,06,21,04,01,3.20
2019,06,21,04,02,3.20
2019,06,21,04,03,4.80
2019,06,21,04,04,3.20
2019,06,21,04,05,3.20
2019,06,21,04,06,3.20
2019,06,21,04,07,3.20
2019,06,21,04,08,3.20
2019,06,21,04,09,3.20
2019,06,21,04,10,3.20
2019,06,21,04,11,3.20
2019,06,21,04,12,3.20
2019,06,21,04,13,4.80
2019,06,21,04,14,3.20
2019,06,21,04,15,3.20
2019,06,21,04,16,3.20
2019,06,21,04,17,3.20
2019,06,21,04,18,3.20
2019,06,21,04,19,3.20
2019,06,21,04,20,3.20
2019,06,21,04,21,1.60
2019,06,21,04,22,4.80
2019,06,21,04,23,6.40
2019,06,21,04,24,8.10
2019,06,21,04,25,3.20
2019,06,21,04,26,3.20
2019,06,21,04,27,3.20
2019,06,21,04,28,4.80
2019,06,21,04,29,3.20
2019,06,21,04,30,4.80
2019,06,21,04,31,3.20
2019,06,21,04,32,3.20
2019,06,21,04,33,4.80
2019,06,21,04,34,3.20
2019,06,21,04,35,3.20
2019,06,21,04,36,3.20
2019,06,21,04,37,3.20
2019,06,21,04,38,3.20
2019,06,21,04,39,1.60
2019,06,21,04,40,3.20
2019,06,21,04,41,3.20
2019,06,21,04,42,4.80
2019,06,21,04,43,3.20
2019,06,21,04,44,3.20
2019,06,21,04,45,3.20
2019,06,21,04,46,4.80
2019,06,21,04,47,3.20
2019,06,21,04,48,3.20
2019,06,21,04,49,3.20
2019,06,21,04,52,3.20
2019,06,21,04,53,1.60
2019,06,21,04,54,3.20
2019,06,21,04,55,4.80
2019,06,21,04,56,4.80
2019,06,21,04,57,4.80
2019,06,21,04,58,4.80
2019,06,21,04,59,3.20
2019,06,21,05,00,3.20
2019,06,21,05,01,4.80
2019,06,21,05,02,3.20
2019,06,21,05,03,3.20
2019,06,21,05,04,3.20
2019,06,21,05,05,1.60
2019,06,21,05,06,4.80
2019,06,21,05,07,4.80
2019,06,21,05,08,4.80
2019,06,21,05,09,3.20
2019,06,21,05,10,3.20
2019,06,21,05,11,3.20
2019,06,21,05,12,3.20
2019,06,21,05,13,4.80
2019,06,21,05,14,1.60
2019,06,21,05,15,3.20
2019,06,21,05,16,3.20
2019,06,21,05,17,4.80
2019,06,21,05,18,6.40
2019,06,21,05,19,6.40
2019,06,21,05,20,6.40
2019,06,21,05,21,4.80
2019,06,21,05,22,4.80
2019,06,21,05,23,3.20
2019,06,21,05,24,3.20
2019,06,21,05,25,4.80
2019,06,21,05,26,6.40
2019,06,21,05,27,4.80
2019,06,21,05,28,3.20
2019,06,21,05,29,4.80
2019,06,21,05,30,4.80
2019,06,21,05,31,4.80
2019,06,21,05,32,4.80
2019,06,21,05,33,4.80
2019,06,21,05,34,4.80
2019,06,21,05,35,4.80
2019,06,21,05,36,4.80
2019,06,21,05,37,4.80
2019,06,21,05,38,4.80
2019,06,21,05,39,4.80
2019,06,21,05,40,4.80
2019,06,21,05,41,3.20
2019,06,21,05,42,4.80
2019,06,21,05,43,4.80
2019,06,21,05,44,6.40
2019,06,21,05,45,4.80
2019,06,21,05,46,3.20
2019,06,21,05,47,1.60
2019,06,21,05,48,3.20
2019,06,21,05,49,6.40
2019,06,21,05,50,6.40
2019,06,21,05,51,6.40
2019,06,21,05,52,4.80
2019,06,21,05,53,3.20
2019,06,21,05,54,4.80
2019,06,21,05,55,4.80
2019,06,21,05,56,11.30
2019,06,21,05,57,4.80
2019,06,21,05,58,3.20
2019,06,21,05,59,4.80
2019,06,21,06,00,3.20
2019,06,21,06,01,4.80
2019,06,21,06,02,4.80
2019,06,21,06,03,6.40
2019,06,21,06,04,6.40
2019,06,21,06,05,4.80
2019,06,21,06,06,4.80
2019,06,21,06,07,4.80
2019,06,21,06,08,4.80
2019,06,21,06,09,4.80
2019,06,21,06,10,4.80
2019,06,21,06,11,12.90
2019,06,21,06,12,12.90
2019,06,21,06,13,4.80
2019,06,21,06,14,11.30
2019,06,21,06,15,11.30
2019,06,21,06,16,12.90
2019,06,21,06,17,4.80
2019,06,21,06,18,9.60
2019,06,21,06,19,9.60
2019,06,21,06,20,6.40
2019,06,21,06,21,3.20
2019,06,21,06,22,3.20
2019,06,21,06,23,9.60
2019,06,21,06,24,11.30
2019,06,21,06,25,6.40
2019,06,21,06,26,9.60
2019,06,21,06,27,9.60
2019,06,21,06,28,4.80
2019,06,21,06,29,12.90
2019,06,21,06,30,12.90
2019,06,21,06,31,6.40
2019,06,21,06,32,9.60
2019,06,21,06,33,6.40
2019,06,21,06,34,6.40
2019,06,21,06,35,6.40
2019,06,21,06,36,4.80
2019,06,21,06,37,3.20
2019,06,21,06,38,4.80
2019,06,21,06,39,3.20
2019,06,21,06,40,6.40
2019,06,21,06,41,3.20
2019,06,21,06,42,3.20
2019,06,21,06,43,3.20
2019,06,21,06,44,3.20
2019,06,21,06,45,4.80
2019,06,21,06,46,4.80
2019,06,21,06,47,3.20
2019,06,21,06,48,3.20
2019,06,21,06,49,1.60
2019,06,21,06,50,1.60
2019,06,21,06,51,1.60
2019,06,21,06,52,3.20
2019,06,21,06,53,3.20
2019,06,21,06,54,1.60
2019,06,21,06,55,3.20
2019,06,21,06,56,4.80
2019,06,21,06,57,1.60
2019,06,21,06,58,4.80
2019,06,21,06,59,4.80
2019,06,21,07,00,11.30
2019,06,21,07,01,12.90
2019,06,21,07,02,11.30
2019,06,21,07,03,4.80
2019,06,21,07,04,3.20
2019,06,21,07,05,4.80
2019,06,21,07,06,6.40
2019,06,21,07,07,4.80
2019,06,21,07,08,6.40
2019,06,21,07,09,11.30
2019,06,21,07,10,6.40
2019,06,21,07,11,8.10
2019,06,21,07,12,6.40
2019,06,21,07,13,4.80
2019,06,21,07,14,6.40
2019,06,21,07,15,9.60
2019,06,21,07,16,6.40
2019,06,21,07,17,6.40
2019,06,21,07,18,6.40
2019,06,21,07,19,4.80
2019,06,21,07,20,4.80
2019,06,21,07,21,4.80
2019,06,21,07,22,11.30
2019,06,21,07,23,6.40
2019,06,21,07,24,3.20
2019,06,21,07,25,6.40
2019,06,21,07,26,12.90
2019,06,21,07,27,11.30
2019,06,21,07,28,9.60
2019,06,21,07,29,11.30
2019,06,21,07,30,4.80
2019,06,21,07,31,6.40
2019,06,21,07,32,3.20
2019,06,21,07,33,4.80
2019,06,21,07,34,3.20
2019,06,21,07,35,1.60
2019,06,21,07,36,3.20
2019,06,21,07,37,9.60
2019,06,21,07,38,6.40
2019,06,21,07,39,9.60
2019,06,21,07,40,17.70
2019,06,21,07,41,17.70
2019,06,21,07,42,12.90
2019,06,21,07,43,4.80
2019,06,21,07,44,4.80
2019,06,21,07,45,11.30
2019,06,21,07,46,11.30
2019,06,21,07,47,3.20
2019,06,21,07,48,4.80
2019,06,21,07,49,6.40
2019,06,21,07,50,6.40
2019,06,21,07,51,9.60
2019,06,21,07,52,6.40
2019,06,21,07,53,4.80
2019,06,21,07,54,8.10
2019,06,21,07,55,6.40
2019,06,21,07,56,6.40
2019,06,21,07,57,4.80
2019,06,21,07,58,3.20
2019,06,21,07,59,6.40
2019,06,21,08,00,6.40
2019,06,21,08,01,6.40
2019,06,21,08,02,3.20
2019,06,21,08,03,3.20
2019,06,21,08,04,6.40
2019,06,21,08,05,6.40
2019,06,21,08,06,6.40
2019,06,21,08,07,8.10
2019,06,21,08,08,6.40
2019,06,21,08,09,1.60
2019,06,21,08,10,3.20
2019,06,21,08,11,8.10
2019,06,21,08,12,4.80
2019,06,21,08,13,8.10
2019,06,21,08,14,6.40
2019,06,21,08,15,14.50
2019,06,21,08,16,14.50
2019,06,21,08,17,16.10
2019,06,21,08,18,9.60
2019,06,21,08,19,11.30
2019,06,21,08,20,8.10
2019,06,21,08,21,4.80
2019,06,21,08,22,4.80
2019,06,21,08,23,6.40
2019,06,21,08,24,16.10
2019,06,21,08,25,16.10
2019,06,21,08,26,17.70
2019,06,21,08,27,9.60
2019,06,21,08,28,9.60
2019,06,21,08,29,9.60
2019,06,21,08,30,8.10
2019,06,21,08,31,8.10
2019,06,21,08,32,8.10
2019,06,21,08,33,14.50
2019,06,21,08,34,6.40
2019,06,21,08,35,3.20
2019,06,21,08,36,4.80
2019,06,21,08,37,12.90
2019,06,21,08,38,6.40
2019,06,21,08,39,6.40
2019,06,21,08,40,6.40
2019,06,21,08,41,4.80
2019,06,21,08,42,8.10
2019,06,21,08,43,11.30
2019,06,21,08,44,6.40
2019,06,21,08,45,6.40
2019,06,21,08,46,8.10
2019,06,21,08,47,6.40
2019,06,21,08,48,4.80
2019,06,21,08,49,14.50
2019,06,21,08,50,8.10
2019,06,21,08,51,8.10
2019,06,21,08,52,6.40
2019,06,21,08,53,4.80
2019,06,21,08,54,6.40
2019,06,21,08,55,3.20
2019,06,21,08,56,4.80
2019,06,21,08,57,6.40
2019,06,21,08,58,12.90
2019,06,21,08,59,17.70
2019,06,21,09,00,17.70
2019,06,21,09,01,3.20
2019,06,21,09,02,4.80
2019,06,21,09,03,11.30
2019,06,21,09,04,4.80
2019,06,21,09,05,6.40
2019,06,21,09,06,3.20
2019,06,21,09,07,4.80
2019,06,21,09,08,4.80
2019,06,21,09,09,3.20
2019,06,21,09,10,4.80
2019,06,21,09,11,9.60
2019,06,21,09,12,8.10
2019,06,21,09,13,4.80
2019,06,21,09,14,12.90
2019,06,21,09,15,4.80
2019,06,21,09,16,6.40
2019,06,21,09,17,9.60
2019,06,21,09,18,4.80
2019,06,21,09,19,8.10
2019,06,21,09,20,6.40
2019,06,21,09,21,1.60
2019,06,21,09,22,8.10
2019,06,21,09,23,4.80
2019,06,21,09,24,12.90
2019,06,21,09,25,11.30
2019,06,21,09,26,8.10
2019,06,21,09,27,8.10
2019,06,21,09,28,6.40
2019,06,21,09,29,9.60
2019,06,21,09,30,6.40
2019,06,21,09,31,4.80
2019,06,21,09,32,8.10
2019,06,21,09,33,11.30
2019,06,21,09,34,12.90
2019,06,21,09,35,4.80
2019,06,21,09,36,11.30
2019,06,21,09,37,9.60
2019,06,21,09,38,9.60
2019,06,21,09,39,9.60
2019,06,21,09,40,6.40
2019,06,21,09,41,6.40
2019,06,21,09,42,11.30
2019,06,21,09,43,8.10
2019,06,21,09,44,6.40
2019,06,21,09,45,8.10
2019,06,21,09,46,9.60
2019,06,21,09,47,6.40
2019,06,21,09,48,8.10
2019,06,21,09,49,11.30
2019,06,21,09,50,6.40
2019,06,21,09,51,9.60
2019,06,21,09,52,8.10
2019,06,21,09,53,9.60
2019,06,21,09,54,6.40
2019,06,21,09,55,8.10
2019,06,21,09,56,6.40
2019,06,21,09,57,6.40
2019,06,21,09,58,6.40
2019,06,21,09,59,6.40
2019,06,21,10,00,16.10
2019,06,21,10,01,16.10
2019,06,21,10,02,9.60
2019,06,21,10,03,8.10
2019,06,21,10,04,11.30
2019,06,21,10,05,16.10
2019,06,21,10,06,6.40
2019,06,21,10,07,6.40
2019,06,21,10,08,6.40
2019,06,21,10,09,9.60
2019,06,21,10,10,4.80
2019,06,21,10,11,8.10
2019,06,21,10,12,12.90
2019,06,21,10,13,6.40
2019,06,21,10,14,6.40
2019,06,21,10,15,8.10
2019,06,21,10,16,12.90
2019,06,21,10,17,8.10
2019,06,21,10,18,8.10
2019,06,21,10,19,8.10
2019,06,21,10,20,8.10
2019,06,21,10,21,4.80
2019,06,21,10,22,8.10
2019,06,21,10,23,11.30
2019,06,21,10,24,9.60
2019,06,21,10,25,6.40
2019,06,21,10,26,4.80
2019,06,21,10,27,6.40
2019,06,21,10,28,6.40
2019,06,21,10,29,8.10
2019,06,21,10,30,6.40
2019,06,21,10,31,6.40
2019,06,21,10,32,4.80
2019,06,21,10,33,9.60
2019,06,21,10,34,9.60
2019,06,21,10,35,6.40
2019,06,21,10,36,4.80
2019,06,21,10,37,4.80
2019,06,21,10,38,3.20
2019,06,21,10,39,8.10
2019,06,21,10,40,11.30
2019,06,21,10,41,11.30
2019,06,21,10,42,12.90
2019,06,21,10,43,14.50
2019,06,21,10,44,9.60
2019,06,21,10,45,12.90
2019,06,21,10,46,14.50
2019,06,21,10,47,8.10
2019,06,21,10,48,11.30
2019,06,21,10,49,9.60
2019,06,21,10,50,9.60
2019,06,21,10,51,14.50
2019,06,21,10,52,14.50
2019,06,21,10,53,11.30
2019,06,21,10,54,8.10
2019,06,21,10,55,4.80
2019,06,21,10,56,3.20
2019,06,21,10,57,4.80
2019,06,21,10,58,6.40
2019,06,21,10,59,6.40
2019,06,21,11,00,6.40
2019,06,21,11,01,16.10
2019,06,21,11,02,16.10
2019,06,21,11,03,14.50
2019,06,21,11,04,6.40
2019,06,21,11,05,11.30
2019,06,21,11,06,12.90
2019,06,21,11,07,11.30
2019,06,21,11,08,8.10
2019,06,21,11,09,8.10
2019,06,21,11,10,6.40
2019,06,21,11,11,6.40
2019,06,21,11,12,9.60
2019,06,21,11,13,9.60
2019,06,21,11,14,8.10
2019,06,21,11,15,6.40
2019,06,21,11,16,11.30
2019,06,21,11,17,12.90
2019,06,21,11,18,4.80
2019,06,21,11,19,4.80
2019,06,21,11,20,6.40
2019,06,21,11,21,6.40
2019,06,21,11,22,6.40
2019,06,21,11,23,6.40
2019,06,21,11,24,6.40
2019,06,21,11,25,6.40
2019,06,21,11,26,6.40
2019,06,21,11,27,6.40
2019,06,21,11,28,6.40
2019,06,21,11,29,6.40
2019,06,21,11,30,6.40
2019,06,21,12,38,8.10
2019,06,21,12,39,12.90
2019,06,21,12,40,6.40
2019,06,21,12,41,3.20
2019,06,21,12,42,8.10
2019,06,21,12,43,4.80
2019,06,21,12,44,4.80
2019,06,21,12,45,8.10
2019,06,21,12,46,6.40
2019,06,21,12,47,9.60
2019,06,21,12,48,8.10
2019,06,21,12,49,9.60
2019,06,21,12,50,11.30
2019,06,21,12,51,6.40
2019,06,21,12,52,11.30
2019,06,21,12,53,8.10
2019,06,21,12,54,4.80
2019,06,21,12,55,12.90
2019,06,21,12,56,4.80
2019,06,21,12,57,6.40
2019,06,21,12,58,12.90
2019,06,21,12,59,12.90
2019,06,21,13,00,9.60
2019,06,21,13,01,6.40
2019,06,21,13,02,9.60
2019,06,21,13,03,8.10
2019,06,21,13,04,9.60
2019,06,21,13,05,8.10
2019,06,21,13,06,6.40
2019,06,21,13,07,4.80
2019,06,21,13,08,12.90
2019,06,21,13,09,9.60
2019,06,21,13,10,9.60
2019,06,21,13,11,16.10
2019,06,21,13,12,14.50
2019,06,21,13,13,11.30
2019,06,21,13,14,12.90
2019,06,21,13,15,6.40
2019,06,21,13,16,8.10
2019,06,21,13,17,9.60
2019,06,21,13,18,8.10
2019,06,21,13,19,6.40
2019,06,21,13,20,8.10
2019,06,21,13,21,8.10
2019,06,21,13,22,6.40
2019,06,21,13,23,6.40
2019,06,21,13,24,6.40
2019,06,21,13,25,6.40
2019,06,21,13,26,8.10
2019,06,21,13,27,9.60
2019,06,21,13,28,6.40
2019,06,21,13,29,4.80
2019,06,21,13,30,6.40
2019,06,21,13,31,6.40
2019,06,21,13,32,6.40
2019,06,21,13,33,8.10
2019,06,21,13,34,12.90
2019,06,21,13,35,8.10
2019,06,21,13,36,8.10
2019,06,21,13,37,11.30
2019,06,21,13,38,12.90
2019,06,21,13,39,17.70
2019,06,21,13,40,8.10
2019,06,21,13,41,9.60
2019,06,21,13,42,6.40
2019,06,21,13,43,8.10
2019,06,21,13,44,6.40
2019,06,21,13,45,6.40
2019,06,21,13,46,6.40
2019,06,21,13,47,6.40
2019,06,21,13,48,11.30
2019,06,21,13,49,8.10
2019,06,21,13,50,8.10
2019,06,21,13,51,14.50
2019,06,21,13,52,6.40
2019,06,21,13,53,9.60
2019,06,21,13,54,6.40
2019,06,21,13,55,8.10
2019,06,21,13,56,6.40
2019,06,21,13,57,4.80
2019,06,21,13,58,8.10
2019,06,21,13,59,9.60
2019,06,21,14,00,9.60
2019,06,21,14,01,6.40
2019,06,21,14,02,11.30
2019,06,21,14,03,4.80
2019,06,21,14,04,9.60
2019,06,21,14,05,6.40
2019,06,21,14,06,4.80
2019,06,21,14,07,8.10
2019,06,21,14,08,12.90
2019,06,21,14,09,8.10
2019,06,21,14,10,8.10
2019,06,21,14,11,8.10
2019,06,21,14,12,6.40
2019,06,21,14,13,8.10
2019,06,21,14,14,8.10
2019,06,21,14,15,9.60
2019,06,21,14,16,8.10
2019,06,21,14,17,14.50
2019,06,21,14,18,8.10
2019,06,21,14,19,9.60
2019,06,21,14,20,14.50
2019,06,21,14,21,14.50
2019,06,21,14,22,9.60
2019,06,21,14,23,9.60
2019,06,21,14,24,9.60
2019,06,21,14,25,6.40
2019,06,21,14,26,8.10
2019,06,21,14,27,6.40
2019,06,21,14,28,6.40
2019,06,21,14,29,12.90
2019,06,21,14,30,8.10
2019,06,21,14,31,11.30
2019,06,21,14,32,9.60
2019,06,21,14,33,8.10
2019,06,21,14,34,6.40
2019,06,21,14,35,8.10
2019,06,21,14,36,8.10
2019,06,21,14,37,6.40
2019,06,21,14,38,8.10
2019,06,21,14,39,11.30
2019,06,21,14,40,8.10
2019,06,21,14,41,11.30
2019,06,21,14,42,16.10
2019,06,21,14,43,4.80
2019,06,21,14,44,9.60
2019,06,21,14,45,8.10
2019,06,21,14,46,8.10
2019,06,21,14,47,9.60
2019,06,21,14,48,8.10
2019,06,21,14,49,8.10
2019,06,21,14,50,8.10
2019,06,21,14,51,8.10
2019,06,21,14,52,8.10
2019,06,21,14,53,9.60
2019,06,21,14,54,14.50
2019,06,21,14,55,11.30
2019,06,21,14,56,8.10
2019,06,21,14,57,9.60
2019,06,21,14,58,8.10
2019,06,21,14,59,8.10
2019,06,21,15,00,9.60
2019,06,21,15,01,6.40
2019,06,21,15,02,9.60
2019,06,21,15,03,12.90
2019,06,21,15,04,11.30
2019,06,21,15,05,6.40
2019,06,21,15,06,6.40
2019,06,21,15,07,9.60
2019,06,21,15,08,6.40
2019,06,21,15,09,9.60
2019,06,21,15,10,8.10
2019,06,21,15,11,9.60
2019,06,21,15,12,14.50
2019,06,21,15,13,6.40
2019,06,21,15,14,4.80
2019,06,21,15,15,6.40
2019,06,21,15,16,8.10
2019,06,21,15,17,8.10
2019,06,21,15,18,9.60
2019,06,21,15,19,11.30
2019,06,21,15,20,6.40
2019,06,21,15,21,6.40
2019,06,21,15,22,8.10
2019,06,21,15,23,6.40
2019,06,21,15,24,4.80
2019,06,21,15,25,6.40
2019,06,21,15,26,8.10
2019,06,21,15,27,9.60
2019,06,21,15,28,8.10
2019,06,21,15,29,6.40
2019,06,21,15,30,9.60
2019,06,21,15,31,8.10
2019,06,21,15,32,9.60
2019,06,21,15,33,9.60
2019,06,21,15,34,4.80
2019,06,21,15,35,6.40
2019,06,21,15,36,8.10
2019,06,21,15,37,9.60
2019,06,21,15,38,9.60
2019,06,21,15,39,6.40
2019,06,21,15,40,9.60
2019,06,21,15,41,12.90
2019,06,21,15,42,12.90
2019,06,21,15,43,9.60
2019,06,21,15,44,6.40
2019,06,21,15,45,6.40
2019,06,21,15,46,12.90
2019,06,21,15,47,9.60
2019,06,21,15,48,6.40
2019,06,21,15,49,6.40
2019,06,21,15,50,3.20
2019,06,21,15,51,4.80
2019,06,21,15,52,4.80
2019,06,21,15,53,6.40
2019,06,21,15,54,6.40
2019,06,21,15,55,9.60
2019,06,21,15,56,9.60
2019,06,21,15,57,6.40
2019,06,21,15,58,9.60
2019,06,21,15,59,9.60
2019,06,21,16,00,11.30
2019,06,21,16,01,6.40
2019,06,21,16,02,4.80
2019,06,21,16,03,9.60
2019,06,21,16,04,6.40
2019,06,21,16,05,8.10
2019,06,21,16,06,9.60
2019,06,21,16,07,9.60
2019,06,21,16,08,8.10
2019,06,21,16,09,9.60
2019,06,21,16,10,4.80
2019,06,21,16,11,9.60
2019,06,21,16,12,6.40
2019,06,21,16,13,4.80
2019,06,21,16,14,4.80
2019,06,21,16,15,8.10
2019,06,21,16,16,4.80
2019,06,21,16,17,9.60
2019,06,21,16,18,4.80
2019,06,21,16,19,4.80
2019,06,21,16,20,8.10
2019,06,21,16,21,6.40
2019,06,21,16,22,6.40
2019,06,21,16,23,4.80
2019,06,21,16,24,6.40
2019,06,21,16,25,8.10
2019,06,21,16,26,6.40
2019,06,21,16,27,4.80
2019,06,21,16,28,4.80
2019,06,21,16,29,6.40
2019,06,21,16,30,3.20
2019,06,21,16,31,4.80
2019,06,21,16,32,8.10
2019,06,21,16,33,4.80
2019,06,21,16,34,6.40
2019,06,21,16,35,3.20
2019,06,21,16,36,4.80
2019,06,21,16,37,4.80
2019,06,21,16,38,6.40
2019,06,21,16,39,4.80
2019,06,21,16,40,8.10
2019,06,21,16,41,4.80
2019,06,21,16,42,6.40
2019,06,21,16,43,6.40
2019,06,21,16,44,8.10
2019,06,21,16,45,8.10
2019,06,21,16,46,6.40
2019,06,21,16,47,6.40
2019,06,21,16,48,6.40
2019,06,21,16,49,9.60
2019,06,21,16,50,8.10
2019,06,21,16,51,8.10
2019,06,21,16,52,8.10
2019,06,21,16,53,4.80
2019,06,21,16,54,3.20
2019,06,21,16,55,4.80
2019,06,21,16,56,4.80
2019,06,21,16,57,4.80
2019,06,21,16,58,8.10
2019,06,21,16,59,8.10
2019,06,21,17,00,8.10
2019,06,21,17,01,8.10
2019,06,21,17,02,6.40
2019,06,21,17,03,9.60
2019,06,21,17,04,8.10
2019,06,21,17,05,11.30
2019,06,21,17,06,8.10
2019,06,21,17,07,6.40
2019,06,21,17,08,4.80
2019,06,21,17,09,8.10
2019,06,21,17,10,6.40
2019,06,21,17,11,8.10
2019,06,21,17,12,8.10
2019,06,21,17,13,8.10
2019,06,21,17,14,8.10
2019,06,21,17,15,8.10
2019,06,21,17,16,8.10
2019,06,21,17,17,8.10
2019,06,21,17,18,4.80
2019,06,21,17,19,6.40
2019,06,21,17,20,9.60
2019,06,21,17,21,8.10
2019,06,21,17,22,6.40
2019,06,21,17,23,6.40
2019,06,21,17,24,6.40
2019,06,21,17,25,6.40
2019,06,21,17,26,8.10
2019,06,21,17,27,4.80
2019,06,21,17,28,4.80
2019,06,21,17,29,8.10
2019,06,21,17,30,8.10
2019,06,21,17,31,8.10
2019,06,21,17,32,4.80
2019,06,21,17,33,8.10
2019,06,21,17,34,8.10
2019,06,21,17,35,6.40
2019,06,21,17,36,8.10
2019,06,21,17,37,4.80
2019,06,21,17,38,8.10
2019,06,21,17,39,9.60
2019,06,21,17,40,8.10
2019,06,21,17,41,6.40
2019,06,21,17,42,9.60
2019,06,21,17,43,8.10
2019,06,21,17,44,6.40
2019,06,21,17,45,6.40
2019,06,21,17,46,8.10
2019,06,21,17,47,4.80
2019,06,21,17,48,8.10
2019,06,21,17,49,6.40
2019,06,21,17,50,3.20
2019,06,21,17,51,8.10
2019,06,21,17,52,4.80
2019,06,21,17,53,6.40
2019,06,21,17,54,6.40
2019,06,21,17,55,6.40
2019,06,21,17,56,6.40
2019,06,21,17,57,4.80
2019,06,21,17,58,3.20
2019,06,21,17,59,3.20
2019,06,21,18,00,4.80
2019,06,21,18,01,4.80
2019,06,21,18,02,3.20
2019,06,21,18,03,6.40
2019,06,21,18,04,4.80
2019,06,21,18,05,4.80
2019,06,21,18,06,6.40
2019,06,21,18,07,4.80
2019,06,21,18,08,4.80
2019,06,21,18,09,3.20
2019,06,21,18,10,4.80
2019,06,21,18,11,4.80
2019,06,21,18,12,4.80
2019,06,21,18,13,4.80
2019,06,21,18,14,3.20
2019,06,21,18,15,3.20
2019,06,21,18,16,4.80
2019,06,21,18,17,4.80
2019,06,21,18,18,6.40
2019,06,21,18,19,3.20
2019,06,21,18,20,3.20
2019,06,21,18,21,3.20
2019,06,21,18,22,4.80
2019,06,21,18,23,4.80
2019,06,21,18,24,4.80
2019,06,21,18,25,4.80
2019,06,21,18,26,4.80
2019,06,21,18,27,8.10
2019,06,21,18,28,8.10
2019,06,21,18,29,6.40
2019,06,21,18,30,4.80
2019,06,21,18,31,4.80
2019,06,21,18,32,6.40
2019,06,21,18,33,6.40
2019,06,21,18,34,6.40
2019,06,21,18,35,6.40
2019,06,21,18,36,6.40
2019,06,21,18,37,6.40
2019,06,21,18,38,6.40
2019,06,21,18,39,4.80
2019,06,21,18,40,4.80
2019,06,21,18,41,3.20
2019,06,21,18,42,4.80
2019,06,21,18,43,8.10
2019,06,21,18,44,6.40
2019,06,21,18,45,4.80
2019,06,21,18,46,4.80
2019,06,21,18,47,4.80
2019,06,21,18,48,4.80
2019,06,21,18,49,4.80
2019,06,21,18,50,6.40
2019,06,21,18,51,8.10
2019,06,21,18,52,6.40
2019,06,21,18,53,6.40
2019,06,21,18,54,3.20
2019,06,21,18,55,3.20
2019,06,21,18,56,4.80
2019,06,21,18,57,1.60
2019,06,21,18,58,1.60
2019,06,21,18,59,8.10
2019,06,21,19,00,8.10
2019,06,21,19,01,6.40
2019,06,21,19,02,4.80
2019,06,21,19,03,4.80
2019,06,21,19,04,9.60
2019,06,21,19,05,8.10
2019,06,21,19,06,3.20
2019,06,21,19,07,3.20
2019,06,21,19,08,3.20
2019,06,21,19,09,3.20
2019,06,21,19,10,3.20
2019,06,21,19,11,3.20